Seretse Khama, Botswana

10:08 PM CAT on June 28, 2017 (GMT +0200)
Seretse Khama

Weather History for FBSK - November, 2011

Change the Weather History Date:

Saturday, November 12, 2011

  Actual Average Record
Temperature  
Mean Temperature 72 °F -  
Max Temperature 100 °F 85 °F 104 °F (2015)
Min Temperature 43 °F 63 °F 42 °F (2003)
Cooling Degree Days 6    
Growing Degree Days 22 (Base 50)    
Moisture  
Dew Point 48 °F    
Average Humidity 28    
Maximum Humidity 53    
Minimum Humidity 10    
Precipitation  
Precipitation 0.00 in - - ()
Sea Level Pressure  
Sea Level Pressure 29.92 in    
Wind  
Wind Speed 7 mph ()    
Max Wind Speed 15 mph    
Max Gust Speed -    
Visibility 6.2 miles    
Events      
Averages and records for this station are not official NWS values.
T = Trace of Precipitation, MM = Missing Value Source: Averaged Metar Reports

Daily Weather History Graph

Daily Weather History Graph

Search for Another Location

Airport or City:

Trip Planner

Search our weather history database for the weather conditions in past years. The results will help you decide how hot, cold, wet, or windy it might be!

Date:

Astronomy

Nov. 12, 2011 Rise Set
Actual Time 5:23 AM CAT 6:37 PM CAT
Civil Twilight 4:58 AM CAT 7:02 PM CAT
Nautical Twilight 4:29 AM CAT 7:31 PM CAT
Astronomical Twilight 4:00 AM CAT 8:01 PM CAT
Moon 8:11 PM CAT (11/12) 6:16 AM CAT (11/12)
Length of Visible Light 14h 03m
Length of Day
13h 14m
Full, 98% of the Moon is Illuminated
Nov 12
Full
Nov 18
Last Quarter
Nov 25
New
Dec 2
First Quarter
Dec 10
Full

Hourly Weather History & Observations

Time (CAT) Temp. Heat Index Dew Point Humidity Pressure Visibility Wind Dir Wind Speed Gust Speed Precip Events Conditions
12:00 AM 78.8 °F - 46.4 °F 32% 29.95 in - ENE 5.8 mph - N/A   Clear
1:00 AM 75.2 °F - 46.4 °F 36% 29.92 in - ESE 8.1 mph - N/A   Clear
2:00 AM 77.0 °F - 48.2 °F 36% 29.92 in - East 10.4 mph - N/A   Clear
3:00 AM 75.2 °F - 48.2 °F 38% 29.92 in - East 9.2 mph - N/A   Clear
4:00 AM 73.4 °F - 51.8 °F 47% 29.95 in - ESE 9.2 mph - N/A   Clear
5:00 AM 71.6 °F - 53.6 °F 53% 29.95 in - ESE 8.1 mph - N/A   Clear
6:00 AM 71.6 °F - 53.6 °F 53% 29.98 in - East 11.5 mph - N/A   Clear
7:00 AM 77.0 °F - 53.6 °F 44% 29.98 in - ENE 15.0 mph - N/A   Clear
8:00 AM 82.4 °F 81.4 °F 53.6 °F 37% 29.98 in - NE 13.8 mph - N/A   Clear
9:00 AM 84.2 °F 82.8 °F 53.6 °F 35% 30.01 in - NNE 10.4 mph - N/A   Clear
10:00 AM 87.8 °F - 51.8 °F 29% 29.98 in - NE 6.9 mph - N/A   Clear
11:00 AM 89.6 °F - 51.8 °F 27% 30.01 in - Variable 6.9 mph - N/A   Clear
12:00 PM 93.2 °F - 50.0 °F 23% 29.95 in - Variable 4.6 mph - N/A   Clear
1:00 PM 95.0 °F - 48.2 °F 20% 29.92 in - Variable 4.6 mph - N/A   Clear
2:00 PM 97 °F - 46 °F 10%  in 6 mi SSE 2.3 mph - -   Scattered Clouds
2:00 PM 96.8 °F - 46.4 °F 18% 29.89 in 6.2 mi Variable 2.3 mph - N/A   Partly Cloudy
3:00 PM 100.4 °F - 42.8 °F 14% 29.86 in 6.2 mi Variable 4.6 mph - N/A   Partly Cloudy
4:00 PM 100.4 °F - 42.8 °F 14% 29.83 in 6.2 mi SW 5.8 mph - N/A   Partly Cloudy
5:00 PM 98.6 °F - 42.8 °F 15% 29.83 in 6.2 mi West 10.4 mph - N/A   Partly Cloudy
6:00 PM 96.8 °F - 42.8 °F 16% 29.83 in 6.2 mi WSW 5.8 mph - N/A   Partly Cloudy
7:00 PM 93.2 °F - 44.6 °F 19% 29.83 in 6.2 mi Variable 3.5 mph - N/A   Partly Cloudy
8:00 PM 43 °F - - %  in 6 mi SSW 4.6 mph - -   Partly Cloudy
8:00 PM 89.6 °F - 42.8 °F 20% 29.86 in - SSW 4.6 mph - N/A   Clear
9:00 PM 87.8 °F - 42.8 °F 21% 29.86 in - SSE 5.8 mph - N/A   Clear
10:00 PM 86.0 °F - 46.4 °F 25% 29.86 in - East 4.6 mph - N/A   Clear
11:00 PM 86.0 °F - 44.6 °F 23% 29.92 in - ENE 5.8 mph - N/A   Clear